Location: Heisede
(52.2582°N, 9.8523°E)
Time: 23:24:44
(UTC+00:00)

Cosmos 1295 Rocket - Pass Details

Date: 13 January 2026
Orbit: 942 x 994 km, 82.9° (Epoch: 7 February)

Event Time Altitude Azimuth Distance (km) Brightness Sun altitude
Rises 05:32:49 0° 198° (SSW) 3,698 7.5 -16.3°
Reaches altitude 10° 05:35:22 10° 201° (SSW) 2,752 6.8 -15.9°
Maximum altitude 05:41:39 66° 284° (WNW) 1,079 4.5 -15.0°
Drops below altitude 10° 05:47:56 10° 6° (N) 2,749 6.8 -14.1°
Sets 05:50:29 0° 10° (N) 3,694 7.4 -13.7°
